Lander, WY

7:53 PM MST on February 24, 2017 (GMT -0700)
South Pass

Weather History for KFWZ - October, 2012

Change the Weather History Date:

Saturday, October 27, 2012

  Actual Average (KLND) Record (KLND)
Temperature  
Mean Temperature 26 °F -  
Max Temperature 32 °F 54 °F 75 °F (2016)
Min Temperature 19 °F 28 °F 6 °F (1919)
Degree Days  
Heating Degree Days 40    
Moisture  
Dew Point 20 °F    
Average Humidity 78    
Maximum Humidity 100    
Minimum Humidity 60    
Precipitation  
Precipitation 0.00 in - - ()
Sea Level Pressure  
Sea Level Pressure 30.00 in    
Wind  
Wind Speed 10 mph ()    
Max Wind Speed 17 mph    
Max Gust Speed 28 mph    
Visibility 9.0 miles    
Events Snow    
Averages and records for this station are not official NWS values.
T = Trace of Precipitation, MM = Missing Value Source: Averaged Metar Reports

Daily Weather History Graph

Daily Weather History Graph

Search for Another Location

Airport or City:

Trip Planner

Search our weather history database for the weather conditions in past years. The results will help you decide how hot, cold, wet, or windy it might be!

Date:

Astronomy

Oct. 27, 2012 Rise Set
Actual Time 7:43 AM MDT 6:14 PM MDT
Civil Twilight 7:14 AM MDT 6:43 PM MDT
Nautical Twilight 6:41 AM MDT 7:16 PM MDT
Astronomical Twilight 6:08 AM MDT 7:48 PM MDT
Moon 5:02 PM MDT (10/27) 5:39 AM MDT (10/27)
Length of Visible Light 11h 28m
Length of Day
10h 30m
Waxing Gibbous, 96% of the Moon is Illuminated
Oct 27
Waxing Gibbous
Oct 29
Full
Nov 6
Last Quarter
Nov 13
New
Nov 20
First Quarter

Hourly Weather History & Observations

Time (MDT) Temp. Windchill Dew Point Humidity Pressure Visibility Wind Dir Wind Speed Gust Speed Precip Events Conditions
12:15 AM 21.2 °F 10.9 °F 15.8 °F 80% - 10.0 mi WSW 9.2 mph - N/A   Scattered Clouds
12:35 AM 21.2 °F 10.9 °F 14.0 °F 74% - 10.0 mi SW 9.2 mph 18.4 mph N/A   Clear
1:15 AM 21.2 °F 10.1 °F 14.0 °F 74% - 10.0 mi WSW 10.4 mph - N/A   Clear
1:35 AM 21.2 °F 11.7 °F 14.0 °F 74% - 10.0 mi West 8.1 mph - N/A   Clear
1:55 AM 21.2 °F 7.3 °F 15.8 °F 80% - 10.0 mi WSW 16.1 mph - N/A   Mostly Cloudy
2:15 AM 21.2 °F 7.8 °F 15.8 °F 80% - 10.0 mi WSW 15.0 mph - N/A   Overcast
2:35 AM 21.2 °F 7.3 °F 15.8 °F 80% - 10.0 mi WSW 16.1 mph - N/A   Overcast
2:55 AM 19.4 °F 5.5 °F 17.6 °F 93% - 5.0 mi WSW 15.0 mph 20.7 mph N/A Snow Light Snow
3:15 AM 19.4 °F 7.2 °F 17.6 °F 93% - 5.0 mi SW 11.5 mph - N/A Snow Light Snow
3:35 AM 21.2 °F 11.7 °F 17.6 °F 86% - 3.0 mi WSW 8.1 mph - N/A Snow Light Snow
3:55 AM 21.2 °F 13.6 °F 19.4 °F 93% - 3.0 mi WSW 5.8 mph - N/A Snow Light Snow
4:15 AM 21.2 °F 11.7 °F 19.4 °F 93% - 5.0 mi SW 8.1 mph - N/A Snow Light Snow
4:35 AM 21.2 °F 13.6 °F 19.4 °F 93% - 7.0 mi SW 5.8 mph - N/A Snow Light Snow
4:55 AM 21.2 °F 12.6 °F 19.4 °F 93% - 5.0 mi SSW 6.9 mph - N/A Snow Light Snow
5:15 AM 21.2 °F 11.7 °F 19.4 °F 93% - 3.0 mi SW 8.1 mph - N/A Snow Light Snow
5:35 AM 21.2 °F 11.7 °F 19.4 °F 93% - 3.0 mi SSW 8.1 mph - N/A Snow Light Snow
5:55 AM 19.4 °F 8.6 °F 19.4 °F 100% - 7.0 mi SW 9.2 mph 16.1 mph N/A Snow Light Snow
6:15 AM 19.4 °F 7.2 °F 17.6 °F 93% - 10.0 mi SW 11.5 mph 17.3 mph N/A Snow Light Snow
6:35 AM 19.4 °F 7.2 °F 17.6 °F 93% - 10.0 mi SW 11.5 mph - N/A   Scattered Clouds
6:55 AM 19.4 °F 8.6 °F 17.6 °F 93% - 10.0 mi SW 9.2 mph - N/A   Clear
7:15 AM 19.4 °F 9.5 °F 17.6 °F 93% - 10.0 mi SSW 8.1 mph - N/A   Scattered Clouds
7:35 AM 19.4 °F 10.4 °F 17.6 °F 93% - 10.0 mi SSW 6.9 mph - N/A   Clear
8:15 AM 19.4 °F 6.6 °F 17.6 °F 93% - 10.0 mi WSW 12.7 mph 17.3 mph N/A   Clear
8:35 AM 19.4 °F 6.6 °F 19.4 °F 100% - 10.0 mi SW 12.7 mph - N/A   Clear
8:55 AM 23.0 °F 9.6 °F 19.4 °F 86% - 10.0 mi WSW 16.1 mph - N/A   Clear
9:15 AM 23.0 °F 10.6 °F 19.4 °F 86% - 10.0 mi WSW 13.8 mph - N/A   Clear
9:35 AM 26.6 °F 14.7 °F 21.2 °F 80% - 10.0 mi WSW 15.0 mph 18.4 mph N/A   Clear
9:55 AM 28.4 °F 17.5 °F 21.2 °F 74% - 10.0 mi West 13.8 mph 21.9 mph N/A   Clear
10:15 AM 28.4 °F 17.0 °F 21.2 °F 74% - 10.0 mi West 15.0 mph 19.6 mph N/A   Clear
10:35 AM 30.2 °F 20.2 °F 19.4 °F 64% - 7.0 mi West 12.7 mph 26.5 mph N/A   Scattered Clouds
10:55 AM 30.2 °F 20.2 °F 21.2 °F 69% 30.00 in 10.0 mi West 12.7 mph 25.3 mph N/A   Mostly Cloudy
11:35 AM 28.4 °F 20.4 °F 21.2 °F 74% 30.01 in 10.0 mi WSW 8.1 mph - N/A   Overcast
12:15 PM 28.4 °F 17.5 °F 24.8 °F 86% 30.01 in 10.0 mi WSW 13.8 mph - N/A Snow Light Snow
12:35 PM 28.4 °F 18.5 °F 23.0 °F 80% 30.01 in 7.0 mi WSW 11.5 mph - N/A Snow Light Snow
12:55 PM 28.4 °F 18.0 °F 24.8 °F 86% 30.01 in 7.0 mi WSW 12.7 mph - N/A Snow Light Snow
1:15 PM 28.4 °F 18.5 °F 24.8 °F 86% 30.01 in 5.0 mi WSW 11.5 mph - N/A Snow Light Snow
1:55 PM 30.2 °F 19.8 °F 23.0 °F 75% 30.00 in 10.0 mi WSW 13.8 mph - N/A   Overcast
2:15 PM 30.2 °F 19.3 °F 23.0 °F 75% 29.99 in 10.0 mi WSW 15.0 mph 23.0 mph N/A Snow Light Snow
2:35 PM 30.2 °F 20.2 °F 24.8 °F 80% 29.99 in 10.0 mi WSW 12.7 mph 17.3 mph N/A   Overcast
2:55 PM 32.0 °F 21.6 °F 24.8 °F 75% 29.99 in 10.0 mi WSW 15.0 mph 19.6 mph N/A   Overcast
3:15 PM 32.0 °F 22.1 °F 24.8 °F 75% 29.98 in 10.0 mi WSW 13.8 mph 19.6 mph N/A   Overcast
3:35 PM 30.2 °F 19.8 °F 24.8 °F 80% 29.98 in 10.0 mi WSW 13.8 mph 20.7 mph N/A   Mostly Cloudy
3:55 PM 30.2 °F 19.8 °F 24.8 °F 80% 29.98 in 10.0 mi WSW 13.8 mph 18.4 mph N/A   Scattered Clouds
4:15 PM 32.0 °F 22.5 °F 23.0 °F 69% 29.98 in 10.0 mi West 12.7 mph 20.7 mph N/A   Scattered Clouds
4:35 PM 32.0 °F 24.2 °F 19.4 °F 60% 29.98 in 10.0 mi WSW 9.2 mph 18.4 mph N/A   Clear
4:55 PM 32.0 °F 23.0 °F 21.2 °F 64% 29.98 in 10.0 mi West 11.5 mph 19.6 mph N/A   Clear
5:15 PM 32.0 °F 23.0 °F 19.4 °F 60% 29.98 in 10.0 mi West 11.5 mph 24.2 mph N/A   Clear
5:35 PM 32.0 °F 24.2 °F 19.4 °F 60% 29.99 in 10.0 mi West 9.2 mph 19.6 mph N/A   Clear
5:55 PM 32.0 °F 23.0 °F 19.4 °F 60% 29.99 in 10.0 mi West 11.5 mph 19.6 mph N/A   Clear
6:15 PM 32.0 °F 22.5 °F 19.4 °F 60% 29.99 in 10.0 mi West 12.7 mph 18.4 mph N/A   Clear
6:35 PM 32.0 °F 22.1 °F 19.4 °F 60% 30.00 in 10.0 mi West 13.8 mph 21.9 mph N/A   Clear
7:15 PM 32.0 °F 22.5 °F 19.4 °F 60% 30.00 in 10.0 mi West 12.7 mph 21.9 mph N/A   Scattered Clouds
7:35 PM 32.0 °F 20.8 °F 21.2 °F 64% 30.01 in 10.0 mi West 17.3 mph 24.2 mph N/A   Mostly Cloudy
7:55 PM 32.0 °F 22.1 °F 21.2 °F 64% 30.01 in 10.0 mi West 13.8 mph 19.6 mph N/A   Overcast
8:15 PM 32.0 °F 24.2 °F 21.2 °F 64% 30.01 in 10.0 mi West 9.2 mph 20.7 mph N/A   Overcast
8:35 PM 32.0 °F 22.1 °F 21.2 °F 64% 30.01 in 10.0 mi West 13.8 mph 27.6 mph N/A   Overcast
8:55 PM 32.0 °F 21.2 °F 21.2 °F 64% 30.00 in 10.0 mi West 16.1 mph 21.9 mph N/A   Overcast
9:15 PM 32.0 °F 27.5 °F 23.0 °F 69% 30.01 in 10.0 mi West 4.6 mph 23.0 mph N/A   Overcast
9:35 PM 32.0 °F 25.6 °F 21.2 °F 64% 30.01 in 10.0 mi West 6.9 mph 19.6 mph N/A   Overcast
9:55 PM 32.0 °F 24.2 °F 23.0 °F 69% 30.01 in 10.0 mi West 9.2 mph 18.4 mph N/A   Overcast
10:15 PM 32.0 °F 22.5 °F 23.0 °F 69% 30.01 in 10.0 mi West 12.7 mph 19.6 mph N/A   Scattered Clouds
10:35 PM 32.0 °F 23.6 °F 23.0 °F 69% 30.02 in 10.0 mi West 10.4 mph 21.9 mph N/A   Clear
10:55 PM 32.0 °F 22.5 °F 23.0 °F 69% 30.03 in 10.0 mi West 12.7 mph 23.0 mph N/A   Scattered Clouds
11:15 PM 32.0 °F 26.4 °F 23.0 °F 69% 30.03 in 10.0 mi West 5.8 mph 16.1 mph N/A   Overcast
11:35 PM 30.2 °F 22.6 °F 23.0 °F 75% 30.03 in 10.0 mi WSW 8.1 mph - N/A   Overcast
11:55 PM 30.2 °F 20.8 °F 24.8 °F 80% 30.02 in 10.0 mi WSW 11.5 mph 18.4 mph N/A   Overcast